Wetterdaten: Freitag, 18.06.2010
Datum Zeit Temp. A. Feuchte A. Luftdruck Regen Wind Richtung Richtung Sonnenschein UV Solar Windben
18.06.2010 00:00 15,1 C 69 % 1014,3 hPa 0,0 mm 0,0 km/h (0 Bft) N-NO 22 0 min 0 UV-I 0 W/m 1,6 km/h (1 Bft)
18.06.2010 00:10 14,8 C 71 % 1014,3 hPa 0,0 mm 0,0 km/h (0 Bft) N-NO 22 0 min 0 UV-I 0 W/m 1,6 km/h (1 Bft)
18.06.2010 00:20 14,5 C 72 % 1014,2 hPa 0,0 mm 0,0 km/h (0 Bft) N 0 0 min 0 UV-I 0 W/m 0,0 km/h (0 Bft)
18.06.2010 00:30 14,2 C 74 % 1014,2 hPa 0,0 mm 0,0 km/h (0 Bft) N 0 0 min 0 UV-I 0 W/m 0,0 km/h (0 Bft)
18.06.2010 00:40 14,1 C 74 % 1014,1 hPa 0,0 mm 0,0 km/h (0 Bft) N 0 0 min 0 UV-I 0 W/m 0,0 km/h (0 Bft)
18.06.2010 00:50 13,8 C 76 % 1014,0 hPa 0,0 mm 0,0 km/h (0 Bft) N 0 0 min 0 UV-I 0 W/m 0,0 km/h (0 Bft)
18.06.2010 01:00 13,5 C 77 % 1013,9 hPa 0,0 mm 0,0 km/h (0 Bft) N 0 0 min 0 UV-I 0 W/m 0,0 km/h (0 Bft)
18.06.2010 01:10 13,6 C 78 % 1014,0 hPa 0,0 mm 0,0 km/h (0 Bft) N-NO 22 0 min 0 UV-I 0 W/m 3,2 km/h (1 Bft)
18.06.2010 01:20 13,7 C 78 % 1014,0 hPa 0,0 mm 0,0 km/h (0 Bft) N 0 0 min 0 UV-I 0 W/m 0,0 km/h (0 Bft)
18.06.2010 01:30 13,5 C 80 % 1013,9 hPa 0,0 mm 0,0 km/h (0 Bft) N 0 0 min 0 UV-I 0 W/m 0,0 km/h (0 Bft)
18.06.2010 01:40 13,4 C 79 % 1013,7 hPa 0,0 mm 0,0 km/h (0 Bft) N-NO 22 0 min 0 UV-I 0 W/m 1,6 km/h (1 Bft)
18.06.2010 01:50 13,3 C 79 % 1013,7 hPa 0,0 mm 0,0 km/h (0 Bft) N 0 0 min 0 UV-I 0 W/m 0,0 km/h (0 Bft)
18.06.2010 02:00 13,3 C 80 % 1013,6 hPa 0,0 mm 0,0 km/h (0 Bft) N 0 0 min 0 UV-I 0 W/m 0,0 km/h (0 Bft)
18.06.2010 02:10 13,2 C 80 % 1013,4 hPa 0,0 mm 0,0 km/h (0 Bft) N 0 0 min 0 UV-I 0 W/m 0,0 km/h (0 Bft)
18.06.2010 02:20 12,9 C 81 % 1013,4 hPa 0,0 mm 0,0 km/h (0 Bft) N-NO 22 0 min 0 UV-I 0 W/m 1,6 km/h (1 Bft)
18.06.2010 02:30 12,8 C 82 % 1013,4 hPa 0,0 mm 0,0 km/h (0 Bft) N 0 0 min 0 UV-I 0 W/m 0,0 km/h (0 Bft)
18.06.2010 02:40 12,8 C 82 % 1013,3 hPa 0,0 mm 0,0 km/h (0 Bft) N 0 0 min 0 UV-I 0 W/m 0,0 km/h (0 Bft)
18.06.2010 02:50 12,7 C 81 % 1013,4 hPa 0,0 mm 0,0 km/h (0 Bft) N-NO 22 0 min 0 UV-I 0 W/m 1,6 km/h (1 Bft)
18.06.2010 03:00 12,7 C 81 % 1013,2 hPa 0,0 mm 0,0 km/h (0 Bft) N-NO 22 0 min 0 UV-I 0 W/m 1,6 km/h (1 Bft)
18.06.2010 03:10 12,4 C 82 % 1013,2 hPa 0,0 mm 0,0 km/h (0 Bft) N 0 0 min 0 UV-I 0 W/m 0,0 km/h (0 Bft)
18.06.2010 03:20 12,4 C 82 % 1013,1 hPa 0,0 mm 0,0 km/h (0 Bft) N-NO 22 0 min 0 UV-I 0 W/m 1,6 km/h (1 Bft)
18.06.2010 03:30 12,3 C 83 % 1012,9 hPa 0,0 mm 0,0 km/h (0 Bft) N-NO 22 0 min 0 UV-I 0 W/m 1,6 km/h (1 Bft)
18.06.2010 03:40 12,2 C 84 % 1012,7 hPa 0,0 mm 0,0 km/h (0 Bft) N 0 0 min 0 UV-I 0 W/m 0,0 km/h (0 Bft)
18.06.2010 03:50 12,1 C 84 % 1012,8 hPa 0,0 mm 0,0 km/h (0 Bft) N-NO 22 0 min 0 UV-I 0 W/m 1,6 km/h (1 Bft)
18.06.2010 04:00 11,9 C 84 % 1012,6 hPa 0,0 mm 0,0 km/h (0 Bft) N-NO 22 0 min 0 UV-I 0 W/m 1,6 km/h (1 Bft)
18.06.2010 04:10 11,7 C 85 % 1012,4 hPa 0,0 mm 0,0 km/h (0 Bft) N-NO 22 0 min 0 UV-I 0 W/m 1,6 km/h (1 Bft)
18.06.2010 04:20 11,5 C 85 % 1012,4 hPa 0,0 mm 0,0 km/h (0 Bft) N-NO 22 0 min 0 UV-I 0 W/m 1,6 km/h (1 Bft)
18.06.2010 04:30 11,3 C 86 % 1012,4 hPa 0,0 mm 0,0 km/h (0 Bft) N-NO 22 0 min 0 UV-I 0 W/m 1,6 km/h (1 Bft)
18.06.2010 04:40 11,2 C 85 % 1012,3 hPa 0,0 mm 0,0 km/h (0 Bft) N-NO 22 0 min 0 UV-I 0 W/m 3,2 km/h (1 Bft)
18.06.2010 04:50 10,9 C 86 % 1012,3 hPa 0,0 mm 0,0 km/h (0 Bft) N-NO 22 0 min 0 UV-I 0 W/m 1,6 km/h (1 Bft)
18.06.2010 05:00 10,8 C 87 % 1012,3 hPa 0,0 mm 0,0 km/h (0 Bft) N-NO 22 0 min 0 UV-I 0 W/m 1,6 km/h (1 Bft)
18.06.2010 05:10 10,8 C 87 % 1012,2 hPa 0,0 mm 0,0 km/h (0 Bft) N-NO 22 0 min 0 UV-I 0 W/m 1,6 km/h (1 Bft)
18.06.2010 05:20 10,8 C 88 % 1012,3 hPa 0,0 mm 0,0 km/h (0 Bft) N 0 0 min 0 UV-I 7 W/m 0,0 km/h (0 Bft)
18.06.2010 05:30 10,8 C 88 % 1012,2 hPa 0,0 mm 0,0 km/h (0 Bft) N 0 0 min 0 UV-I 11 W/m 0,0 km/h (0 Bft)
18.06.2010 05:40 10,8 C 88 % 1012,2 hPa 0,0 mm 0,0 km/h (0 Bft) N-NO 22 0 min 0 UV-I 14 W/m 1,6 km/h (1 Bft)
18.06.2010 05:50 10,8 C 88 % 1012,2 hPa 0,0 mm 0,0 km/h (0 Bft) N-NO 22 0 min 0 UV-I 18 W/m 1,6 km/h (1 Bft)
18.06.2010 06:00 10,8 C 88 % 1012,2 hPa 0,0 mm 0,0 km/h (0 Bft) N-NO 22 0 min 0 UV-I 23 W/m 1,6 km/h (1 Bft)
18.06.2010 06:10 10,8 C 89 % 1012,2 hPa 0,0 mm 0,0 km/h (0 Bft) N-NO 22 0 min 0 UV-I 28 W/m 1,6 km/h (1 Bft)
18.06.2010 06:20 10,9 C 89 % 1012,2 hPa 0,0 mm 0,0 km/h (0 Bft) N-NO 22 0 min 0 UV-I 81 W/m 1,6 km/h (1 Bft)
18.06.2010 06:30 11,4 C 89 % 1012,2 hPa 0,0 mm 0,0 km/h (0 Bft) N-NO 22 10 min 0 UV-I 97 W/m 1,6 km/h (1 Bft)
18.06.2010 06:40 11,7 C 89 % 1012,3 hPa 0,0 mm 0,0 km/h (0 Bft) W-NW 292 10 min 0 UV-I 113 W/m 3,2 km/h (1 Bft)
18.06.2010 06:50 12,0 C 89 % 1012,3 hPa 0,0 mm 0,0 km/h (0 Bft) W-NW 292 10 min 1 UV-I 127 W/m 4,8 km/h (1 Bft)
18.06.2010 07:00 12,3 C 88 % 1012,4 hPa 0,0 mm 0,0 km/h (0 Bft) W-NW 292 10 min 1 UV-I 172 W/m 4,8 km/h (1 Bft)
18.06.2010 07:10 12,6 C 87 % 1012,3 hPa 0,0 mm 0,0 km/h (0 Bft) N-NO 22 10 min 1 UV-I 167 W/m 6,4 km/h (2 Bft)
18.06.2010 07:20 12,8 C 86 % 1012,3 hPa 0,0 mm 1,6 km/h (1 Bft) N 360 0 min 1 UV-I 100 W/m 6,4 km/h (2 Bft)
18.06.2010 07:30 13,0 C 85 % 1012,4 hPa 0,0 mm 1,6 km/h (1 Bft) NW 315 0 min 1 UV-I 86 W/m 11,3 km/h (2 Bft)
18.06.2010 07:40 12,8 C 86 % 1012,4 hPa 0,0 mm 1,6 km/h (1 Bft) N 360 0 min 1 UV-I 74 W/m 8,0 km/h (2 Bft)
18.06.2010 07:50 12,9 C 85 % 1012,5 hPa 0,0 mm 3,2 km/h (1 Bft) N 360 0 min 1 UV-I 120 W/m 12,9 km/h (3 Bft)
18.06.2010 08:00 12,8 C 86 % 1012,6 hPa 0,0 mm 1,9 km/h (1 Bft) NO 49 0 min 0 UV-I 60 W/m 4,8 km/h (1 Bft)
18.06.2010 08:10 12,6 C 86 % 1012,7 hPa 0,0 mm 1,6 km/h (1 Bft) W-NW 292 0 min 1 UV-I 67 W/m 9,7 km/h (2 Bft)
18.06.2010 08:20 12,4 C 86 % 1012,6 hPa 0,0 mm 1,6 km/h (1 Bft) NW 315 0 min 1 UV-I 76 W/m 11,3 km/h (2 Bft)
18.06.2010 08:30 12,3 C 87 % 1012,6 hPa 0,0 mm 1,6 km/h (1 Bft) W-NW 292 0 min 1 UV-I 72 W/m 8,0 km/h (2 Bft)
18.06.2010 08:40 12,4 C 86 % 1012,6 hPa 0,0 mm 3,2 km/h (1 Bft) NW 315 0 min 1 UV-I 91 W/m 12,9 km/h (3 Bft)
18.06.2010 08:50 12,5 C 86 % 1012,6 hPa 0,0 mm 1,6 km/h (1 Bft) N-NO 22 0 min 1 UV-I 107 W/m 8,0 km/h (2 Bft)
18.06.2010 09:00 12,7 C 85 % 1012,7 hPa 0,0 mm 3,2 km/h (1 Bft) W-NW 292 0 min 1 UV-I 97 W/m 11,3 km/h (2 Bft)
18.06.2010 09:10 12,7 C 85 % 1012,7 hPa 0,0 mm 1,6 km/h (1 Bft) W-NW 292 0 min 1 UV-I 146 W/m 9,7 km/h (2 Bft)
18.06.2010 09:20 12,7 C 84 % 1012,6 hPa 0,0 mm 1,6 km/h (1 Bft) W-NW 292 0 min 1 UV-I 169 W/m 8,0 km/h (2 Bft)
18.06.2010 09:30 12,9 C 84 % 1012,6 hPa 0,0 mm 1,6 km/h (1 Bft) N 360 0 min 1 UV-I 153 W/m 6,4 km/h (2 Bft)
18.06.2010 09:40 13,1 C 83 % 1012,6 hPa 0,0 mm 1,6 km/h (1 Bft) N-NW 337 0 min 1 UV-I 132 W/m 6,4 km/h (2 Bft)
18.06.2010 09:50 13,2 C 83 % 1012,6 hPa 0,0 mm 0,0 km/h (0 Bft) N-NW 337 0 min 1 UV-I 105 W/m 4,8 km/h (1 Bft)
18.06.2010 10:00 13,1 C 84 % 1012,7 hPa 0,0 mm 1,6 km/h (1 Bft) W-NW 292 0 min 1 UV-I 102 W/m 8,0 km/h (2 Bft)
18.06.2010 10:10 12,9 C 84 % 1012,6 hPa 0,0 mm 3,2 km/h (1 Bft) NW 315 0 min 1 UV-I 83 W/m 8,0 km/h (2 Bft)
18.06.2010 10:20 12,8 C 84 % 1012,8 hPa 0,0 mm 3,2 km/h (1 Bft) NW 315 0 min 1 UV-I 93 W/m 11,3 km/h (2 Bft)
18.06.2010 10:30 12,8 C 84 % 1012,8 hPa 0,0 mm 3,2 km/h (1 Bft) W-NW 292 0 min 1 UV-I 102 W/m 9,7 km/h (2 Bft)
18.06.2010 10:40 12,8 C 83 % 1012,8 hPa 0,0 mm 3,2 km/h (1 Bft) NW 315 0 min 1 UV-I 109 W/m 12,9 km/h (3 Bft)
18.06.2010 10:50 12,7 C 83 % 1012,7 hPa 0,0 mm 3,2 km/h (1 Bft) NW 315 0 min 1 UV-I 139 W/m 9,7 km/h (2 Bft)
18.06.2010 11:00 12,9 C 82 % 1012,7 hPa 0,0 mm 3,2 km/h (1 Bft) W-NW 292 0 min 2 UV-I 243 W/m 9,7 km/h (2 Bft)
18.06.2010 11:10 12,9 C 82 % 1012,6 hPa 0,0 mm 3,2 km/h (1 Bft) NW 315 0 min 2 UV-I 163 W/m 9,7 km/h (2 Bft)
18.06.2010 11:20 13,0 C 82 % 1012,5 hPa 0,0 mm 1,6 km/h (1 Bft) W 270 0 min 2 UV-I 169 W/m 8,0 km/h (2 Bft)
18.06.2010 11:30 13,1 C 82 % 1012,5 hPa 0,0 mm 3,2 km/h (1 Bft) W-SW 247 0 min 2 UV-I 167 W/m 11,3 km/h (2 Bft)
18.06.2010 11:40 13,1 C 82 % 1012,4 hPa 0,0 mm 3,2 km/h (1 Bft) W-NW 292 0 min 2 UV-I 193 W/m 8,0 km/h (2 Bft)
18.06.2010 11:50 13,2 C 83 % 1012,3 hPa 0,0 mm 1,6 km/h (1 Bft) W-NW 292 0 min 2 UV-I 195 W/m 9,7 km/h (2 Bft)
18.06.2010 12:00 13,1 C 83 % 1012,4 hPa 0,0 mm 3,2 km/h (1 Bft) NW 315 0 min 1 UV-I 139 W/m 16,1 km/h (3 Bft)
18.06.2010 12:10 13,2 C 81 % 1012,4 hPa 0,0 mm 3,2 km/h (1 Bft) NW 315 0 min 2 UV-I 151 W/m 11,3 km/h (2 Bft)
18.06.2010 12:20 13,2 C 81 % 1012,4 hPa 0,0 mm 3,2 km/h (1 Bft) NW 315 0 min 2 UV-I 185 W/m 12,9 km/h (3 Bft)
18.06.2010 12:30 13,4 C 80 % 1012,2 hPa 0,0 mm 1,6 km/h (1 Bft) W 270 0 min 2 UV-I 199 W/m 6,4 km/h (2 Bft)
18.06.2010 12:40 13,4 C 81 % 1012,2 hPa 0,0 mm 3,2 km/h (1 Bft) W-NW 292 0 min 2 UV-I 183 W/m 11,3 km/h (2 Bft)
18.06.2010 12:50 13,6 C 79 % 1012,1 hPa 0,0 mm 4,8 km/h (1 Bft) W 270 0 min 3 UV-I 323 W/m 11,3 km/h (2 Bft)
18.06.2010 13:00 13,9 C 78 % 1012,0 hPa 0,0 mm 1,6 km/h (1 Bft) W 270 0 min 3 UV-I 290 W/m 8,0 km/h (2 Bft)
18.06.2010 13:10 14,3 C 77 % 1012,0 hPa 0,0 mm 3,2 km/h (1 Bft) NW 315 0 min 2 UV-I 237 W/m 12,9 km/h (3 Bft)
18.06.2010 13:20 14,2 C 77 % 1012,0 hPa 0,0 mm 4,8 km/h (1 Bft) W-NW 292 0 min 1 UV-I 132 W/m 11,3 km/h (2 Bft)
18.06.2010 13:30 14,0 C 77 % 1011,9 hPa 0,0 mm 3,2 km/h (1 Bft) W-NW 292 0 min 2 UV-I 251 W/m 9,7 km/h (2 Bft)
18.06.2010 13:40 14,4 C 76 % 1011,8 hPa 0,0 mm 3,2 km/h (1 Bft) W 270 0 min 4 UV-I 406 W/m 11,3 km/h (2 Bft)
18.06.2010 13:50 14,9 C 74 % 1011,6 hPa 0,0 mm 4,8 km/h (1 Bft) W-NW 292 10 min 5 UV-I 475 W/m 12,9 km/h (3 Bft)
18.06.2010 14:00 15,6 C 72 % 1011,4 hPa 0,0 mm 1,6 km/h (1 Bft) NW 315 10 min 7 UV-I 673 W/m 6,4 km/h (2 Bft)
18.06.2010 14:10 16,3 C 69 % 1011,2 hPa 0,0 mm 3,2 km/h (1 Bft) W 270 10 min 7 UV-I 911 W/m 17,7 km/h (3 Bft)
18.06.2010 14:20 16,7 C 67 % 1011,1 hPa 0,0 mm 6,4 km/h (2 Bft) W 270 10 min 7 UV-I 896 W/m 17,7 km/h (3 Bft)
18.06.2010 14:30 17,2 C 65 % 1011,0 hPa 0,0 mm 4,8 km/h (1 Bft) W 270 10 min 7 UV-I 911 W/m 14,5 km/h (3 Bft)
18.06.2010 14:40 17,5 C 65 % 1010,9 hPa 0,0 mm 4,8 km/h (1 Bft) W 270 10 min 7 UV-I 891 W/m 17,7 km/h (3 Bft)
18.06.2010 14:50 17,5 C 65 % 1010,7 hPa 0,0 mm 6,4 km/h (2 Bft) W-SW 247 10 min 6 UV-I 700 W/m 12,9 km/h (3 Bft)
18.06.2010 15:00 17,3 C 65 % 1010,6 hPa 0,0 mm 4,8 km/h (1 Bft) W-NW 292 10 min 5 UV-I 464 W/m 12,9 km/h (3 Bft)
18.06.2010 15:10 17,3 C 63 % 1010,5 hPa 0,0 mm 6,4 km/h (2 Bft) W 270 10 min 7 UV-I 949 W/m 16,1 km/h (3 Bft)
18.06.2010 15:20 18,3 C 59 % 1010,4 hPa 0,0 mm 6,4 km/h (2 Bft) W-SW 247 10 min 7 UV-I 1028 W/m 16,1 km/h (3 Bft)
18.06.2010 15:30 18,7 C 60 % 1010,4 hPa 0,0 mm 4,8 km/h (1 Bft) W-NW 292 10 min 5 UV-I 990 W/m 14,5 km/h (3 Bft)
18.06.2010 15:40 18,0 C 63 % 1010,4 hPa 0,0 mm 4,8 km/h (1 Bft) W-NW 292 0 min 3 UV-I 309 W/m 12,9 km/h (3 Bft)
18.06.2010 15:50 17,7 C 63 % 1010,4 hPa 0,0 mm 4,8 km/h (1 Bft) W-NW 292 0 min 3 UV-I 302 W/m 14,5 km/h (3 Bft)
18.06.2010 16:00 17,2 C 66 % 1010,4 hPa 0,0 mm 5,0 km/h (1 Bft) W-SW 257 0 min 1 UV-I 103 W/m 9,7 km/h (2 Bft)
18.06.2010 16:10 17,1 C 64 % 1010,4 hPa 0,0 mm 6,4 km/h (2 Bft) W-NW 292 0 min 1 UV-I 144 W/m 24,1 km/h (4 Bft)
18.06.2010 16:20 16,8 C 66 % 1010,3 hPa 0,0 mm 6,4 km/h (2 Bft) W-NW 292 0 min 1 UV-I 113 W/m 24,1 km/h (4 Bft)
18.06.2010 16:30 16,7 C 68 % 1010,4 hPa 0,0 mm 4,8 km/h (1 Bft) W-NW 292 0 min 2 UV-I 185 W/m 19,3 km/h (3 Bft)
18.06.2010 16:40 16,6 C 68 % 1010,3 hPa 0,0 mm 4,8 km/h (1 Bft) W-NW 292 0 min 2 UV-I 323 W/m 14,5 km/h (3 Bft)
18.06.2010 16:50 16,9 C 69 % 1010,2 hPa 0,0 mm 3,2 km/h (1 Bft) W-NW 292 0 min 2 UV-I 322 W/m 12,9 km/h (3 Bft)
18.06.2010 17:00 17,1 C 68 % 1010,2 hPa 0,0 mm 6,4 km/h (2 Bft) W-NW 292 0 min 2 UV-I 225 W/m 17,7 km/h (3 Bft)
18.06.2010 17:10 16,8 C 70 % 1010,1 hPa 0,0 mm 6,4 km/h (2 Bft) NW 315 0 min 2 UV-I 218 W/m 16,1 km/h (3 Bft)
18.06.2010 17:20 16,6 C 70 % 1010,0 hPa 0,0 mm 6,4 km/h (2 Bft) W 270 0 min 2 UV-I 241 W/m 17,7 km/h (3 Bft)
18.06.2010 17:30 16,3 C 73 % 1010,0 hPa 0,0 mm 6,4 km/h (2 Bft) W-NW 292 0 min 1 UV-I 165 W/m 17,7 km/h (3 Bft)
18.06.2010 17:40 16,1 C 74 % 1010,1 hPa 0,0 mm 4,8 km/h (1 Bft) W-NW 292 0 min 1 UV-I 186 W/m 12,9 km/h (3 Bft)
18.06.2010 17:50 16,2 C 73 % 1009,9 hPa 0,0 mm 3,2 km/h (1 Bft) W-NW 292 10 min 2 UV-I 329 W/m 16,1 km/h (3 Bft)
18.06.2010 18:00 16,6 C 71 % 1009,7 hPa 0,0 mm 6,4 km/h (2 Bft) W-NW 292 10 min 2 UV-I 387 W/m 12,9 km/h (3 Bft)
18.06.2010 18:10 16,8 C 71 % 1009,7 hPa 0,0 mm 4,8 km/h (1 Bft) W-NW 292 10 min 2 UV-I 288 W/m 14,5 km/h (3 Bft)
18.06.2010 18:20 16,7 C 71 % 1009,6 hPa 0,0 mm 8,0 km/h (2 Bft) W-NW 292 10 min 1 UV-I 281 W/m 16,1 km/h (3 Bft)
18.06.2010 18:30 16,7 C 72 % 1009,4 hPa 0,0 mm 4,8 km/h (1 Bft) W-NW 292 10 min 1 UV-I 297 W/m 14,5 km/h (3 Bft)
18.06.2010 18:40 17,1 C 70 % 1009,3 hPa 0,0 mm 4,8 km/h (1 Bft) W-NW 292 10 min 1 UV-I 385 W/m 16,1 km/h (3 Bft)
18.06.2010 18:50 17,2 C 68 % 1009,2 hPa 0,0 mm 6,4 km/h (2 Bft) W 270 10 min 1 UV-I 267 W/m 16,1 km/h (3 Bft)
18.06.2010 19:00 17,1 C 69 % 1009,2 hPa 0,0 mm 4,8 km/h (1 Bft) W 270 0 min 1 UV-I 163 W/m 14,5 km/h (3 Bft)
18.06.2010 19:10 16,8 C 70 % 1009,2 hPa 0,0 mm 6,4 km/h (2 Bft) W-NW 292 0 min 1 UV-I 97 W/m 16,1 km/h (3 Bft)
18.06.2010 19:20 16,7 C 71 % 1009,2 hPa 0,0 mm 4,8 km/h (1 Bft) W-NW 292 0 min 1 UV-I 86 W/m 17,7 km/h (3 Bft)
18.06.2010 19:30 16,4 C 67 % 1009,1 hPa 0,0 mm 3,2 km/h (1 Bft) N-NO 22 0 min 0 UV-I 86 W/m 12,9 km/h (3 Bft)
18.06.2010 19:40 16,3 C 66 % 1009,1 hPa 0,0 mm 3,2 km/h (1 Bft) W-NW 292 0 min 1 UV-I 98 W/m 16,1 km/h (3 Bft)
18.06.2010 19:50 16,2 C 65 % 1009,1 hPa 0,0 mm 3,2 km/h (1 Bft) N-NO 22 0 min 0 UV-I 84 W/m 16,1 km/h (3 Bft)
18.06.2010 20:00 16,0 C 66 % 1009,2 hPa 0,0 mm 1,6 km/h (1 Bft) NW 315 0 min 0 UV-I 74 W/m 17,7 km/h (3 Bft)
18.06.2010 20:10 15,7 C 64 % 1009,3 hPa 0,0 mm 4,8 km/h (1 Bft) NW 315 0 min 0 UV-I 70 W/m 22,5 km/h (4 Bft)
18.06.2010 20:20 15,3 C 64 % 1009,2 hPa 0,0 mm 4,8 km/h (1 Bft) N-NO 22 0 min 0 UV-I 65 W/m 12,9 km/h (3 Bft)
18.06.2010 20:30 15,1 C 63 % 1009,2 hPa 0,0 mm 4,8 km/h (1 Bft) NW 315 0 min 0 UV-I 42 W/m 19,3 km/h (3 Bft)
18.06.2010 20:40 15,0 C 64 % 1009,2 hPa 0,0 mm 3,2 km/h (1 Bft) NW 315 0 min 0 UV-I 40 W/m 16,1 km/h (3 Bft)
18.06.2010 20:50 14,8 C 64 % 1009,2 hPa 0,0 mm 3,2 km/h (1 Bft) N 360 0 min 0 UV-I 39 W/m 14,5 km/h (3 Bft)
18.06.2010 21:00 14,6 C 66 % 1009,2 hPa 0,0 mm 3,2 km/h (1 Bft) N-NO 22 0 min 0 UV-I 33 W/m 14,5 km/h (3 Bft)
18.06.2010 21:10 14,3 C 67 % 1009,2 hPa 0,0 mm 4,8 km/h (1 Bft) N-NO 22 0 min 0 UV-I 23 W/m 20,9 km/h (4 Bft)
18.06.2010 21:20 13,9 C 67 % 1009,4 hPa 0,0 mm 4,8 km/h (1 Bft) W-NW 292 0 min 0 UV-I 18 W/m 14,5 km/h (3 Bft)
18.06.2010 21:30 13,7 C 66 % 1009,5 hPa 0,0 mm 4,8 km/h (1 Bft) W-NW 292 0 min 0 UV-I 11 W/m 16,1 km/h (3 Bft)
18.06.2010 21:40 13,6 C 65 % 1009,5 hPa 0,0 mm 6,4 km/h (2 Bft) W-NW 292 0 min 0 UV-I 0 W/m 25,7 km/h (4 Bft)
18.06.2010 21:50 13,4 C 66 % 1009,6 hPa 0,0 mm 3,2 km/h (1 Bft) W-NW 292 0 min 0 UV-I 0 W/m 11,3 km/h (2 Bft)
18.06.2010 22:00 13,3 C 66 % 1009,7 hPa 0,0 mm 4,8 km/h (1 Bft) W-NW 292 0 min 0 UV-I 0 W/m 19,3 km/h (3 Bft)
18.06.2010 22:10 13,1 C 65 % 1009,6 hPa 0,0 mm 3,2 km/h (1 Bft) W-NW 292 0 min 0 UV-I 0 W/m 12,9 km/h (3 Bft)
18.06.2010 22:20 13,0 C 64 % 1009,6 hPa 0,0 mm 6,4 km/h (2 Bft) W-NW 292 0 min 0 UV-I 0 W/m 17,7 km/h (3 Bft)
18.06.2010 22:30 12,9 C 64 % 1009,6 hPa 0,0 mm 4,8 km/h (1 Bft) W-NW 292 0 min 0 UV-I 0 W/m 17,7 km/h (3 Bft)
18.06.2010 22:40 12,8 C 64 % 1009,6 hPa 0,0 mm 6,4 km/h (2 Bft) W 270 0 min 0 UV-I 0 W/m 16,1 km/h (3 Bft)
18.06.2010 22:50 12,6 C 65 % 1009,5 hPa 0,0 mm 3,2 km/h (1 Bft) W 270 0 min 0 UV-I 0 W/m 11,3 km/h (2 Bft)
18.06.2010 23:00 12,4 C 65 % 1009,5 hPa 0,0 mm 4,8 km/h (1 Bft) W-NW 292 0 min 0 UV-I 0 W/m 16,1 km/h (3 Bft)
18.06.2010 23:10 12,4 C 65 % 1009,6 hPa 0,0 mm 4,8 km/h (1 Bft) W-NW 292 0 min 0 UV-I 0 W/m 19,3 km/h (3 Bft)
18.06.2010 23:20 12,3 C 65 % 1009,6 hPa 0,0 mm 3,2 km/h (1 Bft) W-NW 292 0 min 0 UV-I 0 W/m 12,9 km/h (3 Bft)
18.06.2010 23:30 12,2 C 65 % 1009,7 hPa 0,0 mm 6,4 km/h (2 Bft) W-NW 292 0 min 0 UV-I 0 W/m 20,9 km/h (4 Bft)
18.06.2010 23:40 12,2 C 65 % 1009,5 hPa 0,0 mm 8,0 km/h (2 Bft) W-NW 292 0 min 0 UV-I 0 W/m 19,3 km/h (3 Bft)
18.06.2010 23:50 12,2 C 66 % 1009,3 hPa 0,0 mm 6,4 km/h (2 Bft) NW 315 0 min 0 UV-I 0 W/m 16,1 km/h (3 Bft)
_ Min-Zeit 05:00 15:20 19:30 - 00:00 - - - - - 00:20
Minimum _ 10,7 C 59 % 1009,1 hPa - 0,0 km/h (0 Bft) - - - - - 0,0 km/h (0 Bft)
_ Max-Zeit 15:30 06:10 00:00 00:00 18:20 - - 06:30 14:00 15:20 21:40
Maximum _ 18,9 C 89 % 1014,3 hPa 0,0 mm 8,0 km/h
W-NW (2 Bft)
- - 10 min 7 UV-I 1028 W/m 25,7 km/h
NW (4 Bft)
Durchschnitt _ 13,9 C 76 % 1011,5 hPa #0,0 mm 2,8 km/h (1 Bft) W-NW - #3:50 h 2 UV-I 222 W/m 9,8 km/h (2 Bft)